Previsão horária em Aadorf

Hoje, 21 Outubro, Quarta-feira

Tempo Temperatura Precipitação Vento Pressão Humidade
00:00 +8°C° 0 mm 1 m/s 708 mmHg 71%
01:00 +8°C° 0 mm 1 m/s 708 mmHg 71%
02:00 +8°C° 0 mm 1 m/s 707 mmHg 73%
03:00 +7°C° 0 mm 1 m/s 707 mmHg 75%
04:00 +7°C° 0 mm 1 m/s 706 mmHg 77%
05:00 +7°C° 0 mm 1 m/s 706 mmHg 79%
06:00 +7°C° 0 mm 1 m/s 706 mmHg 80%
07:00 +6°C° 0 mm 1 m/s 706 mmHg 81%
08:00 +9°C° 0 mm 1 m/s 707 mmHg 75%
09:00 +11°C° 0 mm 1 m/s 707 mmHg 69%
10:00 +13°C° 0 mm 1 m/s 707 mmHg 63%
11:00 +15°C° 0 mm 1 m/s 708 mmHg 59%
12:00 +18°C° 0 mm 1 m/s 708 mmHg 55%
13:00 +20°C° 0 mm 1 m/s 708 mmHg 51%
14:00 +19°C° 0 mm 1 m/s 708 mmHg 56%
15:00 +19°C° 0 mm 1 m/s 708 mmHg 61%
16:00 +18°C° 0 mm 1 m/s 708 mmHg 67%
17:00 +15°C° 0 mm 1 m/s 708 mmHg 70%
18:00 +13°C° 0 mm 1 m/s 709 mmHg 73%
19:00 +10°C° 0 mm 2 m/s 709 mmHg 76%
20:00 +11°C° 0 mm 1 m/s 709 mmHg 74%
21:00 +11°C° 0 mm 1 m/s 710 mmHg 72%
22:00 +11°C° 0 mm 1 m/s 710 mmHg 69%
23:00 +10°C° 0 mm 1 m/s 710 mmHg 71%

Amanhã, 22 Outubro, Quinta-feira

Tempo Temperatura Precipitação Vento Pressão Humidade
00:00 +10°C° 0 mm 1 m/s 710 mmHg 72%
01:00 +9°C° 0 mm 1 m/s 710 mmHg 73%
02:00 +9°C° 0 mm 1 m/s 710 mmHg 74%
03:00 +9°C° 0 mm 1 m/s 710 mmHg 75%
04:00 +8°C° 0 mm 1 m/s 710 mmHg 77%
05:00 +8°C° 0 mm 1 m/s 710 mmHg 77%
06:00 +8°C° 0 mm 1 m/s 710 mmHg 78%
07:00 +8°C° 0 mm 1 m/s 710 mmHg 79%
08:00 +10°C° 0 mm 1 m/s 710 mmHg 74%
09:00 +11°C° 0 mm 0 m/s 711 mmHg 69%
10:00 +13°C° 0 mm 0 m/s 711 mmHg 64%
11:00 +14°C° 0 mm 0 m/s 711 mmHg 63%
12:00 +14°C° 0 mm 0 m/s 711 mmHg 63%
13:00 +15°C° 0 mm 0 m/s 711 mmHg 62%
14:00 +16°C° 0 mm 1 m/s 711 mmHg 67%
15:00 +15°C° 0 mm 1 m/s 711 mmHg 71%
16:00 +15°C° 0 mm 1 m/s 711 mmHg 75%
17:00 +14°C° 0 mm 1 m/s 711 mmHg 76%
18:00 +13°C° 0 mm 1 m/s 711 mmHg 77%
19:00 +13°C° 0 mm 1 m/s 711 mmHg 78%
20:00 +12°C° 0 mm 1 m/s 711 mmHg 78%
21:00 +12°C° 0 mm 1 m/s 711 mmHg 78%
22:00 +12°C° 0 mm 1 m/s 711 mmHg 78%
23:00 +12°C° 0 mm 1 m/s 711 mmHg 78%

Depois de amanhã, 23 Outubro, Sexta-feira

Tempo Temperatura Precipitação Vento Pressão Humidade
00:00 +12°C° 0 mm 1 m/s 711 mmHg 78%
01:00 +11°C° 0 mm 0 m/s 710 mmHg 78%
02:00 +11°C° 0 mm 0 m/s 710 mmHg 79%
03:00 +11°C° 0 mm 0 m/s 710 mmHg 79%
04:00 +11°C° 0 mm 0 m/s 710 mmHg 80%
05:00 +11°C° 0.1 mm 0 m/s 710 mmHg 81%
06:00 +11°C° 0.1 mm 0 m/s 709 mmHg 82%
07:00 +10°C° 0.1 mm 0 m/s 709 mmHg 83%
08:00 +11°C° 0.2 mm 0 m/s 709 mmHg 83%
09:00 +11°C° 0.2 mm 0 m/s 709 mmHg 84%
10:00 +12°C° 0.2 mm 0 m/s 709 mmHg 84%
11:00 +12°C° 0.6 mm 0 m/s 709 mmHg 85%
12:00 +12°C° 0.6 mm 0 m/s 708 mmHg 86%
13:00 +14°C° 0.6 mm 1 m/s 708 mmHg 86%
14:00 +13°C° 0.9 mm 1 m/s 708 mmHg 89%
15:00 +13°C° 0.9 mm 1 m/s 708 mmHg 92%
16:00 +12°C° 0.9 mm 1 m/s 708 mmHg 95%
17:00 +12°C° 0.9 mm 2 m/s 708 mmHg 95%
18:00 +12°C° 0.9 mm 2 m/s 708 mmHg 96%
19:00 +12°C° 0.9 mm 2 m/s 708 mmHg 96%
20:00 +12°C° 0.3 mm 2 m/s 709 mmHg 96%
21:00 +12°C° 0.3 mm 2 m/s 709 mmHg 96%
22:00 +12°C° 0.3 mm 2 m/s 709 mmHg 96%
23:00 +12°C° 0.9 mm 2 m/s 709 mmHg 96%

24 Outubro, Sábado

Tempo Temperatura Precipitação Vento Pressão Humidade
00:00 +10°C° 0.9 mm 2 m/s 710 mmHg 96%
01:00 +10°C° 0.9 mm 2 m/s 710 mmHg 96%
02:00 +10°C° 0.3 mm 2 m/s 710 mmHg 95%
03:00 +9°C° 0.3 mm 2 m/s 710 mmHg 95%
04:00 +8°C° 0.3 mm 2 m/s 711 mmHg 95%
05:00 +8°C° 0 mm 2 m/s 711 mmHg 94%
06:00 +8°C° 0 mm 2 m/s 711 mmHg 94%
07:00 +7°C° 0 mm 2 m/s 711 mmHg 94%
08:00 +9°C° 0 mm 2 m/s 712 mmHg 90%
09:00 +10°C° 0 mm 2 m/s 712 mmHg 86%
10:00 +12°C° 0 mm 2 m/s 712 mmHg 83%
11:00 +13°C° 0 mm 2 m/s 712 mmHg 78%
12:00 +14°C° 0 mm 2 m/s 712 mmHg 73%
13:00 +15°C° 0 mm 2 m/s 712 mmHg 68%
14:00 +14°C° 0 mm 2 m/s 712 mmHg 70%
15:00 +14°C° 0 mm 2 m/s 711 mmHg 72%
16:00 +14°C° 0 mm 1 m/s 711 mmHg 74%
17:00 +12°C° 0 mm 1 m/s 711 mmHg 80%
18:00 +10°C° 0 mm 1 m/s 711 mmHg 86%
19:00 +8°C° 0 mm 0 m/s 711 mmHg 91%
20:00 +7°C° 0 mm 0 m/s 711 mmHg 92%
21:00 +7°C° 0 mm 0 m/s 711 mmHg 92%
22:00 +7°C° 0 mm 0 m/s 711 mmHg 92%
23:00 +6°C° 0 mm 0 m/s 710 mmHg 92%

25 Outubro, Domingo

Tempo Temperatura Precipitação Vento Pressão Humidade
00:00 +6°C° 0 mm 0 m/s 710 mmHg 91%
01:00 +6°C° 0 mm 0 m/s 710 mmHg 91%
02:00 +6°C° 0 mm 0 m/s 709 mmHg 91%
03:00 +5°C° 0 mm 0 m/s 709 mmHg 90%
04:00 +5°C° 0 mm 0 m/s 708 mmHg 90%
05:00 +5°C° 0 mm 0 m/s 708 mmHg 90%
06:00 +5°C° 0 mm 0 m/s 708 mmHg 90%
07:00 +4°C° 0 mm 0 m/s 707 mmHg 90%
08:00 +7°C° 0 mm 0 m/s 707 mmHg 83%
09:00 +9°C° 0 mm 0 m/s 707 mmHg 77%
10:00 +11°C° 0 mm 0 m/s 707 mmHg 71%
11:00 +12°C° 0 mm 0 m/s 707 mmHg 66%
12:00 +14°C° 0 mm 0 m/s 707 mmHg 62%
13:00 +16°C° 0 mm 0 m/s 707 mmHg 57%
14:00 +15°C° 0 mm 0 m/s 706 mmHg 61%
15:00 +14°C° 0 mm 0 m/s 705 mmHg 66%
16:00 +14°C° 0 mm 0 m/s 705 mmHg 70%
17:00 +13°C° 0 mm 1 m/s 705 mmHg 75%
18:00 +11°C° 0 mm 1 m/s 705 mmHg 80%
19:00 +9°C° 0 mm 1 m/s 705 mmHg 85%
20:00 +9°C° 0 mm 1 m/s 705 mmHg 84%
21:00 +9°C° 0 mm 1 m/s 705 mmHg 84%
22:00 +9°C° 0 mm 1 m/s 705 mmHg 84%
23:00 +9°C° 0 mm 1 m/s 704 mmHg 83%

26 Outubro, Segunda-feira

Tempo Temperatura Precipitação Vento Pressão Humidade
00:00 +9°C° 0 mm 1 m/s 704 mmHg 82%
01:00 +10°C° 0 mm 1 m/s 704 mmHg 82%
02:00 +9°C° 0.2 mm 1 m/s 704 mmHg 85%
03:00 +8°C° 0.2 mm 2 m/s 703 mmHg 89%
04:00 +8°C° 0.2 mm 3 m/s 703 mmHg 93%
05:00 +7°C° 1.5 mm 3 m/s 703 mmHg 94%
06:00 +7°C° 1.5 mm 3 m/s 703 mmHg 95%
07:00 +5°C° 1.5 mm 3 m/s 703 mmHg 95%
08:00 +6°C° 2.4 mm 2 m/s 704 mmHg 95%
09:00 +6°C° 2.4 mm 2 m/s 704 mmHg 95%
10:00 +6°C° 2.4 mm 2 m/s 704 mmHg 95%
11:00 +6°C° 1.8 mm 2 m/s 704 mmHg 95%
12:00 +5°C° 1.8 mm 2 m/s 704 mmHg 95%
13:00 +5°C° 1.8 mm 2 m/s 704 mmHg 95%
14:00 +5°C° 1.1 mm 2 m/s 704 mmHg 95%
15:00 +5°C° 1.1 mm 2 m/s 705 mmHg 95%
16:00 +5°C° 1.1 mm 2 m/s 705 mmHg 96%
17:00 +6°C° 0.7 mm 1 m/s 705 mmHg 96%
18:00 +6°C° 0.7 mm 1 m/s 706 mmHg 96%
19:00 +6°C° 0.7 mm 1 m/s 706 mmHg 96%
20:00 +6°C° 0.1 mm 1 m/s 707 mmHg 96%
21:00 +6°C° 0.1 mm 1 m/s 707 mmHg 96%
22:00 +5°C° 0.1 mm 0 m/s 708 mmHg 96%
23:00 +5°C° 0.1 mm 0 m/s 708 mmHg 96%

27 Outubro, Terça-feira

Tempo Temperatura Precipitação Vento Pressão Humidade
00:00 +4°C° 0.1 mm 0 m/s 708 mmHg 96%
01:00 +4°C° 0.1 mm 0 m/s 708 mmHg 96%
02:00 +4°C° 0 mm 0 m/s 708 mmHg 96%
03:00 +4°C° 0 mm 0 m/s 709 mmHg 96%
04:00 +3°C° 0 mm 0 m/s 709 mmHg 96%
05:00 +3°C° 0 mm 0 m/s 709 mmHg 96%
06:00 +3°C° 0 mm 0 m/s 709 mmHg 96%
07:00 +3°C° 0 mm 0 m/s 709 mmHg 96%
08:00 +4°C° 0 mm 0 m/s 709 mmHg 94%
09:00 +5°C° 0 mm 0 m/s 710 mmHg 92%
10:00 +6°C° 0 mm 0 m/s 710 mmHg 90%
11:00 +7°C° 0 mm 0 m/s 710 mmHg 86%
12:00 +8°C° 0 mm 0 m/s 710 mmHg 82%
13:00 +9°C° 0 mm 0 m/s 710 mmHg 78%
14:00 +9°C° 0 mm 0 m/s 710 mmHg 79%
15:00 +8°C° 0 mm 0 m/s 710 mmHg 81%
16:00 +8°C° 0 mm 0 m/s 709 mmHg 83%
17:00 +7°C° 0 mm 0 m/s 710 mmHg 86%
18:00 +6°C° 0 mm 0 m/s 710 mmHg 89%
19:00 +5°C° 0 mm 0 m/s 710 mmHg 92%
20:00 +4°C° 0 mm 0 m/s 710 mmHg 92%
21:00 +4°C° 0 mm 0 m/s 710 mmHg 92%
22:00 +4°C° 0 mm 0 m/s 710 mmHg 92%
23:00 +4°C° 0 mm 0 m/s 710 mmHg 91%
Mostrar mais